Weather History for McComb, MS

Change the Weather History Date:

Wednesday, February 13, 2013

  Actual Average Record
Temperature  
Mean Temperature 45 °F -  
Max Temperature 53 °F 63 °F 81 °F (1962)
Min Temperature 36 °F 39 °F 15 °F (1958)
Degree Days  
Heating Degree Days 20    
Moisture  
Dew Point 42 °F    
Average Humidity 80    
Maximum Humidity 94    
Minimum Humidity 61    
Precipitation  
Precipitation 0.01 in - - ()
Sea Level Pressure  
Sea Level Pressure 29.97 in    
Wind  
Wind Speed 9 mph (NW)    
Max Wind Speed 15 mph    
Max Gust Speed 22 mph    
Visibility 10 miles    
Events Rain    
Averages and records for this station are not official NWS values.
T = Trace of Precipitation, MM = Missing Value Source: NWS Daily Summary

Daily Weather History Graph

Daily Weather History Graph

Search for Another Location

Airport:

Trip Planner

Search our weather history database for the weather conditions in past years. The results will help you decide how hot, cold, wet, or windy it might be!

Date:

Astronomy

Feb. 13, 2013 Rise Set
Actual Time 6:44 AM CST 5:47 PM CST
Civil Twilight 6:19 AM CST 6:12 PM CST
Nautical Twilight 5:51 AM CST 6:41 PM CST
Astronomical Twilight 5:23 AM CST 7:09 PM CST
Moon 8:32 AM CST (2/13) 9:30 PM CST (2/13)
Length of Visible Light 11h 52m
Length of Day
11h 03m
Waxing Crescent, 14% of the Moon is Illuminated
Feb 13
Waxing Crescent
Feb 17
First Quarter
Feb 25
Full
Mar 4
Last Quarter
Mar 11
New

Hourly Weather History & Observations

Time (CST) Temp. Windchill Dew Point Humidity Pressure Visibility Wind Dir Wind Speed Gust Speed Precip Events Conditions
12:18 AM 53.6 °F - 51.8 °F 94% 29.87 in 10.0 mi WNW 10.4 mph - N/A   Overcast
12:53 AM 52.0 °F - 48.9 °F 89% 29.87 in 10.0 mi West 6.9 mph - N/A   Overcast
1:14 AM 51.8 °F - 48.2 °F 88% 29.86 in 10.0 mi WNW 6.9 mph - N/A   Scattered Clouds
1:34 AM 51.8 °F - 48.2 °F 88% 29.87 in 10.0 mi WNW 6.9 mph - N/A   Mostly Cloudy
1:53 AM 51.1 °F - 48.0 °F 89% 29.88 in 10.0 mi WNW 9.2 mph - N/A   Overcast
2:53 AM 50.0 °F - 48.0 °F 93% 29.91 in 10.0 mi West 8.1 mph - N/A   Scattered Clouds
3:45 AM 50.0 °F - 46.4 °F 87% 29.90 in 10.0 mi West 4.6 mph - N/A   Mostly Cloudy
3:53 AM 50.0 °F - 46.9 °F 89% 29.89 in 10.0 mi West 4.6 mph - N/A   Mostly Cloudy
4:02 AM 50.0 °F - 46.4 °F 87% 29.89 in 10.0 mi WNW 6.9 mph - N/A   Mostly Cloudy
4:53 AM 50.0 °F - 46.9 °F 89% 29.90 in 10.0 mi WNW 10.4 mph - N/A   Scattered Clouds
5:40 AM 50.0 °F - 46.4 °F 87% 29.93 in 10.0 mi WNW 10.4 mph - N/A   Mostly Cloudy
5:53 AM 50.0 °F - 46.0 °F 86% 29.92 in 10.0 mi West 10.4 mph 17.3 mph N/A   Overcast
6:14 AM 50.0 °F - 46.4 °F 87% 29.93 in 10.0 mi WNW 10.4 mph - N/A   Overcast
6:28 AM 48.2 °F - 46.4 °F 93% 29.93 in 10.0 mi WNW 8.1 mph - N/A   Overcast
6:53 AM 48.9 °F - 45.0 °F 86% 29.91 in 10.0 mi WNW 6.9 mph - N/A   Overcast
7:53 AM 48.9 °F - 46.0 °F 90% 29.97 in 8.0 mi Variable 4.6 mph - 0.01 in Rain Light Rain
8:53 AM 46.9 °F - 43.0 °F 86% 30.00 in 10.0 mi NW 13.8 mph - 0.00 in   Overcast
9:04 AM 46.4 °F 40.4 °F 42.8 °F 87% 30.00 in 10.0 mi NW 13.8 mph 18.4 mph N/A   Overcast
9:53 AM 46.9 °F - 42.1 °F 83% 30.01 in 10.0 mi NW 10.4 mph - N/A   Overcast
10:53 AM 48.0 °F - 39.9 °F 74% 29.99 in 10.0 mi NW 10.4 mph 21.9 mph N/A   Overcast
11:53 AM 48.9 °F - 39.0 °F 69% 30.00 in 10.0 mi NNW 11.5 mph 20.7 mph N/A   Overcast
12:53 PM 50.0 °F - 37.9 °F 63% 29.98 in 10.0 mi North 12.7 mph - N/A   Overcast
1:12 PM 51.8 °F - 39.2 °F 62% 29.98 in 10.0 mi NW 15.0 mph 19.6 mph N/A   Overcast
1:39 PM 51.8 °F - 39.2 °F 62% 30.00 in 10.0 mi NNW 15.0 mph 20.7 mph N/A   Overcast
1:53 PM 51.1 °F - 39.0 °F 63% 30.00 in 10.0 mi NNW 12.7 mph - N/A   Overcast
2:03 PM 51.8 °F - 39.2 °F 62% 29.99 in 10.0 mi NNW 12.7 mph - N/A   Overcast
2:53 PM 51.1 °F - 39.0 °F 63% 29.99 in 10.0 mi NNW 12.7 mph - N/A   Overcast
3:53 PM 51.1 °F - 37.9 °F 61% 29.99 in 10.0 mi NNW 11.5 mph - N/A   Overcast
4:53 PM 50.0 °F - 37.9 °F 63% 30.01 in 10.0 mi NNW 5.8 mph - N/A   Overcast
5:53 PM 48.9 °F - 37.0 °F 64% 30.02 in 10.0 mi North 6.9 mph - N/A   Overcast
6:53 PM 48.0 °F - 37.0 °F 66% 30.04 in 10.0 mi NNW 4.6 mph - N/A   Overcast
7:53 PM 43.0 °F 39.5 °F 37.0 °F 80% 30.05 in 10.0 mi NNW 5.8 mph - N/A   Clear
8:53 PM 43.0 °F 41.3 °F 37.0 °F 80% 30.06 in 10.0 mi North 3.5 mph - N/A   Clear
9:53 PM 39.0 °F - 37.0 °F 93% 30.08 in 10.0 mi Calm Calm - N/A   Clear
10:53 PM 37.0 °F - 35.1 °F 93% 30.08 in 10.0 mi Calm Calm - N/A   Clear
11:53 PM 36.0 °F - 34.0 °F 93% 30.07 in 10.0 mi Calm Calm - N/A   Clear